Location: Brotuna
(46.2000°N, 22.6000°E)
Time: 13:24:52
(UTC+00:00)

Cosmos 2237 Rocket - Pass Details

Date: 09 April 2020
Orbit: 834 x 851 km, 71.0° (Epoch: 27 May)

Event Time Altitude Azimuth Distance (km) Brightness Sun altitude
Rises 23:37:45 0° 337° (NNW) 3,411 5.9 -33.7°
Reaches altitude 10° 23:40:19 10° 343° (NNW) 2,475 5.2 -33.6°
Enters shadow 23:45:42 45° 54° (NE) 1,138 3.1 -33.2°
